Flag for U.S.A. Weather past 2 weeks in Cape Canaveral, Florida, U.S.A.

Now
63 °F

Sunny.


Feels Like: 63 °F
Forecast: 52 / 67 °F
Wind: 7 mph from West

Location: Cape Kennedy

Current Time: Jan 30, 2015 at 10:39:22 AM

Latest Report: Jan 30, 2015 at 9:58 AM


Visibility: 10 mi

Pressure: 30.20 "Hg

Humidity: 68%

Dew point: 52 °F

Location of Cape CanaveralLocation

Historic Weather in Cape Canaveral — Graph

°F

Cape Canaveral temperature yesterday

Maximum temperature yesterday: 68 °F (at 12:58 PM)
Minimum temperature yesterday: 46 °F (at 11:58 PM)
Average temperature yesterday: 57 °F

Past Weeks' High & Low Weather Summary

 TemperatureHumidityPressure
High76 °F (Jan 23, 12:58 PM)96% (Jan 21, 12:58 AM)30.33 "Hg (Jan 21, 12:58 AM)
Low44 °F (Jan 27, 6:58 AM)30% (Jan 25, 1:58 PM)29.80 "Hg (Jan 24, 4:58 AM)
Average59 °F75%30.08 "Hg
* Reported Jan 15 8:58 AM — Jan 30 8:58 AM, Cape Canaveral, Weather by CustomWeather, © 2014

Note: Actual official high and low records may vary slightly from our data, if they occured in-between our weather recording intervals... More about our weather records

Advertising

Cape Canaveral weather history for previous 24 hours

 ConditionsComfort  
Time TempWeatherWind HumidityBarometerVisibility
8:58 AM
Jan 30
58 °FSunny.7 mph75%30.21 "Hg10 mi
7:58 AM49 °FSunny.6 mph90%30.21 "Hg10 mi
6:58 AM51 °FClear.5 mph89%30.20 "Hg10 mi
5:58 AM50 °FClear.1 mph90%30.20 "Hg10 mi
4:58 AM53 °FClear.7 mph90%30.19 "Hg10 mi
3:58 AM51 °FClear.7 mph91%30.18 "Hg10 mi
2:58 AM47 °FClear.2 mph92%30.18 "Hg10 mi
1:58 AM47 °FClear.6 mph89%30.19 "Hg10 mi
12:58 AM47 °FClear.No wind88%30.21 "Hg10 mi
11:58 PM
Jan 29
46 °FClear.1 mph91%30.22 "Hg10 mi
10:58 PM47 °FClear.2 mph90%30.23 "Hg10 mi
9:58 PM49 °FFog.2 mph87%30.26 "Hg6 mi
8:58 PM49 °FClear.3 mph89%30.26 "Hg10 mi
7:58 PM50 °FClear.1 mph87%30.26 "Hg10 mi
6:58 PM55 °FClear.No wind78%30.24 "Hg10 mi
5:58 PM62 °FSunny.No wind69%30.24 "Hg10 mi
4:58 PM66 °FSunny.3 mph54%30.24 "Hg10 mi
3:58 PM66 °FSunny.5 mph52%30.24 "Hg10 mi
2:58 PM68 °FSunny.8 mph51%30.24 "Hg10 mi
1:58 PM67 °FSunny.8 mph51%30.25 "Hg10 mi
12:58 PM68 °FSunny.7 mph51%30.28 "Hg10 mi
11:58 AM67 °FSunny.8 mph48%30.30 "Hg10 mi
10:58 AM67 °FSunny.9 mph49%30.31 "Hg10 mi
Weather by CustomWeather, © 2014

See weather overviewHow to use our weather pages